Location: Rounton
(54.4000°N, 1.3500°W)
Time: 02:34:14
(UTC+00:00)

Envisat - Pass Details

Date: 29 October 2021
Orbit: 764 x 766 km, 98.2° (Epoch: 28 November)

Event Time Altitude Azimuth Distance (km) Brightness Sun altitude
Rises 07:08:25 0° 12° (NNE) 3,247 6.3 -8.2°
Reaches altitude 10° 07:10:47 10° 7° (N) 2,316 5.4 -7.9°
Maximum altitude 07:15:41 49° 294° (WNW) 985 3.2 -7.2°
Drops below altitude 10° 07:20:33 10° 221° (SW) 2,300 5.2 -6.5°
Sets 07:22:54 0° 216° (SW) 3,222 6.0 -6.2°
